This is the latest recevied weather packets stored in our database for station/object N0NPO. If no packets are shown the sender has not sent any weather packets the latest 1 day(s).
| Time | Temp. | Humidity | Pressure | Rain* | Wind** | Luminosity | Snow |
|---|---|---|---|---|---|---|---|
| 1778216566 | 11.11° C | 1% | 1013.2 hPa | 0 mm | - | 0 W/m² | - |
| 1778216262 | 11.11° C | 1% | 1013.3 hPa | 0 mm | - | 0 W/m² | - |
| 1778215960 | 11.11° C | 1% | 1013.4 hPa | 0 mm | - | 0 W/m² | - |
| 1778215657 | 11.67° C | 1% | 1013.2 hPa | 0 mm | - | 0 W/m² | - |
| 1778215354 | 11.67° C | 1% | 1013.3 hPa | 0 mm | - | 0 W/m² | - |
| 1778215050 | 11.67° C | 1% | 1013.2 hPa | 0 mm | - | 0 W/m² | - |
| 1778214748 | 11.67° C | 1% | 1013.3 hPa | 0 mm | - | 0 W/m² | - |
| 1778214444 | 11.67° C | 1% | 1013.2 hPa | 0 mm | - | 0 W/m² | - |
| 1778213838 | 11.67° C | 1% | 1013.3 hPa | 0 mm | - | 0 W/m² | - |
| 1778213535 | 11.67° C | 1% | 1013.4 hPa | 0 mm | - | 0 W/m² | - |
| 1778213231 | 12.22° C | 1% | 1013.3 hPa | 0 mm | - | 0 W/m² | - |
| 1778212929 | 12.22° C | 1% | 1013.4 hPa | 0 mm | - | 0 W/m² | - |
| 1778212626 | 12.78° C | 1% | 1013.5 hPa | 0 mm | - | 0 W/m² | - |
| 1778212019 | 12.22° C | 1% | 1013.5 hPa | 0 mm | - | 0 W/m² | - |
| 1778211717 | 12.22° C | 1% | 1013.6 hPa | 0 mm | - | 0 W/m² | - |
| 1778211414 | 12.78° C | 1% | 1013.5 hPa | 0 mm | - | 0 W/m² | - |
| 1778211112 | 13.89° C | 1% | 1013.5 hPa | 0 mm | - | 0 W/m² | - |
| 1778210809 | 13.33° C | 1% | 1013.6 hPa | 0 mm | - | 0 W/m² | - |
| 1778210506 | 13.89° C | 1% | 1013.4 hPa | 0 mm | - | 0 W/m² | - |
| 1778210203 | 13.89° C | 1% | 1013.6 hPa | 0 mm | - | 0 W/m² | - |
| 1778209899 | 13.89° C | 1% | 1013.4 hPa | 0 mm | - | 0 W/m² | - |
| 1778209596 | 14.44° C | 1% | 1013.3 hPa | 0 mm | - | 0 W/m² | - |
| 1778209294 | 15° C | 1% | 1013.4 hPa | 0 mm | - | 0 W/m² | - |
| 1778208687 | 14.44° C | 1% | 1013.3 hPa | 0 mm | - | 0 W/m² | - |
| 1778208080 | 13.89° C | 1% | 1013.1 hPa | 0 mm | - | 0 W/m² | - |
* Rain latest hour (hover to see other rain measurements)
** Current wind speed in m/s (hover to see current wind gust speed)